Time,TemperatureF,DewpointF,PressureIn,WindDirection,WindDirectionDegrees,WindSpeedMPH,WindSpeedGustMPH,Humidity,HourlyPrecipIn,Conditions,Clouds,dailyrainin,SoftwareType,DateUTC
2013-10-27 00:00:00,69.6,64.5,30.09,ENE,65,0.0,0.0,84,0.00,,,0.00,Wunderground v.1.15,2013-10-27 04:00:00,
2013-10-27 00:01:00,69.6,64.5,30.09,ENE,65,0.0,0.0,84,0.00,,,0.00,Wunderground v.1.15,2013-10-27 04:01:00,
2013-10-27 00:06:00,69.5,64.1,30.09,ENE,65,0.0,0.0,83,0.00,,,0.00,Wunderground v.1.15,2013-10-27 04:06:00,
2013-10-27 00:11:00,69.5,64.5,30.09,ENE,65,0.0,0.0,84,0.00,,,0.00,Wunderground v.1.15,2013-10-27 04:11:00,
2013-10-27 00:16:00,69.4,64.4,30.09,ENE,65,0.0,0.0,84,0.00,,,0.00,Wunderground v.1.15,2013-10-27 04:16:00,
2013-10-27 00:21:00,69.3,64.3,30.09,ENE,65,0.0,0.0,84,0.00,,,0.00,Wunderground v.1.15,2013-10-27 04:21:00,
2013-10-27 00:26:00,69.2,64.2,30.09,ENE,65,0.0,0.0,84,0.00,,,0.00,Wunderground v.1.15,2013-10-27 04:26:00,
2013-10-27 00:31:00,69.1,64.1,30.09,ENE,65,0.0,0.0,84,0.00,,,0.00,Wunderground v.1.15,2013-10-27 04:31:00,
2013-10-27 00:36:00,69.1,64.4,30.09,ENE,65,0.0,0.0,85,0.00,,,0.00,Wunderground v.1.15,2013-10-27 04:36:00,
2013-10-27 00:41:00,69.0,64.3,30.09,ENE,65,0.0,0.0,85,0.00,,,0.00,Wunderground v.1.15,2013-10-27 04:41:00,
2013-10-27 00:46:00,68.8,64.1,30.09,ENE,65,0.0,0.0,85,0.00,,,0.00,Wunderground v.1.15,2013-10-27 04:46:00,
2013-10-27 00:51:00,68.7,64.0,30.09,ENE,65,0.0,0.0,85,0.00,,,0.00,Wunderground v.1.15,2013-10-27 04:51:00,
2013-10-27 00:56:00,68.5,64.1,30.09,ENE,65,0.0,0.0,86,0.00,,,0.00,Wunderground v.1.15,2013-10-27 04:56:00,
2013-10-27 01:01:00,68.4,64.0,30.09,ENE,65,0.0,0.0,86,0.00,,,0.00,Wunderground v.1.15,2013-10-27 05:01:00,
2013-10-27 01:06:00,68.5,64.5,30.08,ENE,65,0.0,0.0,87,0.00,,,0.00,Wunderground v.1.15,2013-10-27 05:06:00,
2013-10-27 01:11:00,68.4,64.0,30.08,ENE,65,0.0,0.0,86,0.00,,,0.00,Wunderground v.1.15,2013-10-27 05:11:00,
2013-10-27 01:16:00,68.2,64.2,30.08,ENE,65,0.0,0.0,87,0.00,,,0.00,Wunderground v.1.15,2013-10-27 05:16:00,
2013-10-27 01:21:00,68.0,64.0,30.08,ENE,65,0.0,0.0,87,0.00,,,0.00,Wunderground v.1.15,2013-10-27 05:21:00,
2013-10-27 01:26:00,68.0,64.3,30.08,ENE,65,0.0,0.0,88,0.00,,,0.00,Wunderground v.1.15,2013-10-27 05:26:00,
2013-10-27 01:31:00,67.9,64.2,30.07,ENE,65,0.0,0.0,88,0.00,,,0.00,Wunderground v.1.15,2013-10-27 05:31:00,
2013-10-27 01:36:00,67.8,64.1,30.08,ENE,65,0.0,0.0,88,0.00,,,0.00,Wunderground v.1.15,2013-10-27 05:36:00,
2013-10-27 01:41:00,67.8,64.1,30.08,ENE,65,0.0,0.0,88,0.00,,,0.00,Wunderground v.1.15,2013-10-27 05:41:00,
2013-10-27 01:46:00,67.8,64.1,30.08,ENE,65,0.0,0.0,88,0.00,,,0.00,Wunderground v.1.15,2013-10-27 05:46:00,
2013-10-27 01:51:00,67.7,63.7,30.07,ENE,65,0.0,0.0,87,0.00,,,0.00,Wunderground v.1.15,2013-10-27 05:51:00,
2013-10-27 01:56:00,67.6,63.6,30.07,ENE,65,0.0,0.0,87,0.00,,,0.00,Wunderground v.1.15,2013-10-27 05:56:00,
2013-10-27 02:01:00,67.5,63.8,30.07,ENE,65,0.0,0.0,88,0.00,,,0.00,Wunderground v.1.15,2013-10-27 06:01:00,
2013-10-27 02:06:00,67.4,63.4,30.07,ENE,65,0.0,0.0,87,0.00,,,0.00,Wunderground v.1.15,2013-10-27 06:06:00,
2013-10-27 02:11:00,67.2,63.2,30.07,ENE,65,0.0,0.0,87,0.00,,,0.00,Wunderground v.1.15,2013-10-27 06:11:00,
2013-10-27 02:16:00,67.2,63.5,30.07,ENE,65,0.0,0.0,88,0.00,,,0.00,Wunderground v.1.15,2013-10-27 06:16:00,
2013-10-27 02:21:00,67.2,63.5,30.07,ENE,65,0.0,0.0,88,0.00,,,0.00,Wunderground v.1.15,2013-10-27 06:21:00,
2013-10-27 02:26:00,67.2,63.5,30.07,ENE,65,0.0,0.0,88,0.00,,,0.00,Wunderground v.1.15,2013-10-27 06:26:00,
2013-10-27 02:31:00,67.3,63.6,30.07,ENE,65,0.0,0.0,88,0.00,,,0.00,Wunderground v.1.15,2013-10-27 06:31:00,
2013-10-27 02:36:00,67.4,63.4,30.07,ENE,65,0.0,0.0,87,0.00,,,0.00,Wunderground v.1.15,2013-10-27 06:36:00,
2013-10-27 02:41:00,67.4,63.4,30.07,ENE,65,0.0,0.0,87,0.00,,,0.00,Wunderground v.1.15,2013-10-27 06:41:00,
2013-10-27 02:46:00,67.5,63.5,30.07,ENE,65,0.0,0.0,87,0.00,,,0.00,Wunderground v.1.15,2013-10-27 06:46:00,
2013-10-27 02:51:00,67.5,63.5,30.06,ENE,65,0.0,0.0,87,0.00,,,0.00,Wunderground v.1.15,2013-10-27 06:51:00,
2013-10-27 02:56:00,67.6,63.6,30.06,NE,55,0.0,1.0,87,0.00,,,0.00,Wunderground v.1.15,2013-10-27 06:56:00,
2013-10-27 03:01:00,67.7,63.4,30.06,NE,56,0.0,0.0,86,0.00,,,0.00,Wunderground v.1.15,2013-10-27 07:01:00,
2013-10-27 03:06:00,67.9,63.6,30.06,NNE,28,0.0,1.0,86,0.00,,,0.00,Wunderground v.1.15,2013-10-27 07:06:00,
2013-10-27 03:11:00,67.9,63.6,30.06,NNE,25,0.0,0.0,86,0.00,,,0.00,Wunderground v.1.15,2013-10-27 07:11:00,
2013-10-27 03:16:00,68.1,63.4,30.06,NE,35,0.0,1.0,85,0.00,,,0.00,Wunderground v.1.15,2013-10-27 07:16:00,
2013-10-27 03:21:00,68.2,63.5,30.06,NE,53,0.0,0.0,85,0.00,,,0.00,Wunderground v.1.15,2013-10-27 07:21:00,
2013-10-27 03:26:00,68.2,63.5,30.06,NE,53,0.0,0.0,85,0.00,,,0.00,Wunderground v.1.15,2013-10-27 07:26:00,
2013-10-27 03:31:00,68.1,63.4,30.06,NE,52,0.0,0.0,85,0.00,,,0.00,Wunderground v.1.15,2013-10-27 07:31:00,
2013-10-27 03:36:00,68.1,63.4,30.06,NE,53,0.0,0.0,85,0.00,,,0.00,Wunderground v.1.15,2013-10-27 07:36:00,
2013-10-27 03:41:00,68.1,63.4,30.06,NE,53,0.0,0.0,85,0.00,,,0.00,Wunderground v.1.15,2013-10-27 07:41:00,
2013-10-27 03:46:00,68.1,63.4,30.06,NE,53,0.0,0.0,85,0.00,,,0.00,Wunderground v.1.15,2013-10-27 07:46:00,
2013-10-27 03:51:00,68.1,63.4,30.06,NE,54,0.0,0.0,85,0.00,,,0.00,Wunderground v.1.15,2013-10-27 07:51:00,
2013-10-27 03:56:00,68.1,63.4,30.06,NE,54,0.0,0.0,85,0.00,,,0.00,Wunderground v.1.15,2013-10-27 07:56:00,
2013-10-27 04:01:00,67.9,63.2,30.05,NE,54,0.0,0.0,85,0.00,,,0.00,Wunderground v.1.15,2013-10-27 08:01:00,
2013-10-27 04:06:00,67.9,63.2,30.05,NE,48,0.0,1.0,85,0.00,,,0.00,Wunderground v.1.15,2013-10-27 08:06:00,
2013-10-27 04:11:00,67.9,63.2,30.05,NE,48,0.0,0.0,85,0.00,,,0.00,Wunderground v.1.15,2013-10-27 08:11:00,
2013-10-27 04:16:00,67.9,62.9,30.05,NE,46,0.0,1.0,84,0.00,,,0.00,Wunderground v.1.15,2013-10-27 08:16:00,
2013-10-27 04:21:00,67.9,62.9,30.06,East,82,0.0,0.0,84,0.00,,,0.00,Wunderground v.1.15,2013-10-27 08:21:00,
2013-10-27 04:26:00,67.8,62.8,30.05,ENE,74,0.0,1.0,84,0.00,,,0.00,Wunderground v.1.15,2013-10-27 08:26:00,
2013-10-27 04:31:00,67.9,62.9,30.05,NE,47,0.0,0.0,84,0.00,,,0.00,Wunderground v.1.15,2013-10-27 08:31:00,
2013-10-27 04:36:00,67.9,62.9,30.05,NE,47,0.0,0.0,84,0.00,,,0.00,Wunderground v.1.15,2013-10-27 08:36:00,
2013-10-27 04:41:00,68.0,63.0,30.05,NE,47,0.0,0.0,84,0.00,,,0.00,Wunderground v.1.15,2013-10-27 08:41:00,
2013-10-27 04:46:00,68.0,62.6,30.06,NE,47,0.0,1.0,83,0.00,,,0.00,Wunderground v.1.15,2013-10-27 08:46:00,
2013-10-27 04:51:00,68.1,62.7,30.05,NE,47,0.0,0.0,83,0.00,,,0.00,Wunderground v.1.15,2013-10-27 08:51:00,
2013-10-27 04:56:00,68.0,62.6,30.05,NE,47,0.0,0.0,83,0.00,,,0.00,Wunderground v.1.15,2013-10-27 08:56:00,
2013-10-27 05:01:00,67.9,62.9,30.05,NE,47,0.0,1.0,84,0.00,,,0.00,Wunderground v.1.15,2013-10-27 09:01:00,
2013-10-27 05:06:00,67.8,62.8,30.06,NE,47,0.0,1.0,84,0.00,,,0.00,Wunderground v.1.15,2013-10-27 09:06:00,
2013-10-27 05:11:00,67.7,62.7,30.06,NE,47,0.0,0.0,84,0.00,,,0.00,Wunderground v.1.15,2013-10-27 09:11:00,
2013-10-27 05:16:00,67.5,62.5,30.05,NE,47,0.0,0.0,84,0.00,,,0.00,Wunderground v.1.15,2013-10-27 09:16:00,
2013-10-27 05:21:00,67.4,62.4,30.05,NE,47,0.0,0.0,84,0.00,,,0.00,Wunderground v.1.15,2013-10-27 09:21:00,
2013-10-27 05:26:00,67.3,62.3,30.05,NE,47,0.0,0.0,84,0.00,,,0.00,Wunderground v.1.15,2013-10-27 09:26:00,
2013-10-27 05:31:00,67.3,62.3,30.05,North,356,0.0,0.0,84,0.00,,,0.00,Wunderground v.1.15,2013-10-27 09:31:00,
2013-10-27 05:36:00,67.2,62.2,30.05,NNE,13,0.0,0.0,84,0.00,,,0.00,Wunderground v.1.15,2013-10-27 09:36:00,
2013-10-27 05:41:00,67.2,62.2,30.05,NNE,25,0.0,0.0,84,0.00,,,0.00,Wunderground v.1.15,2013-10-27 09:41:00,
2013-10-27 05:46:00,67.1,62.1,30.05,NNE,25,0.0,0.0,84,0.00,,,0.00,Wunderground v.1.15,2013-10-27 09:46:00,
2013-10-27 05:51:00,67.1,62.1,30.05,NNE,25,0.0,0.0,84,0.00,,,0.00,Wunderground v.1.15,2013-10-27 09:51:00,
2013-10-27 05:56:00,67.0,62.0,30.05,NNE,25,0.0,0.0,84,0.00,,,0.00,Wunderground v.1.15,2013-10-27 09:56:00,
2013-10-27 06:01:00,67.0,62.0,30.05,NNE,25,0.0,0.0,84,0.00,,,0.00,Wunderground v.1.15,2013-10-27 10:01:00,
2013-10-27 06:06:00,66.9,61.6,30.05,NNE,25,0.0,0.0,83,0.00,,,0.00,Wunderground v.1.15,2013-10-27 10:06:00,
2013-10-27 06:11:00,66.9,61.9,30.05,NNE,25,0.0,0.0,84,0.00,,,0.00,Wunderground v.1.15,2013-10-27 10:11:00,
2013-10-27 06:16:00,66.8,61.8,30.05,NNE,25,0.0,0.0,84,0.00,,,0.00,Wunderground v.1.15,2013-10-27 10:16:00,
2013-10-27 06:21:00,66.6,61.6,30.05,NNE,25,0.0,0.0,84,0.00,,,0.00,Wunderground v.1.15,2013-10-27 10:21:00,
2013-10-27 06:26:00,66.5,61.5,30.05,NNE,25,0.0,0.0,84,0.00,,,0.00,Wunderground v.1.15,2013-10-27 10:26:00,
2013-10-27 06:31:00,66.3,61.7,30.06,NNE,25,0.0,0.0,85,0.00,,,0.00,Wunderground v.1.15,2013-10-27 10:31:00,
2013-10-27 06:36:00,66.1,61.5,30.06,NNE,24,0.0,0.0,85,0.00,,,0.00,Wunderground v.1.15,2013-10-27 10:36:00,
2013-10-27 06:41:00,66.0,61.7,30.05,NNE,25,0.0,0.0,86,0.00,,,0.00,Wunderground v.1.15,2013-10-27 10:41:00,
2013-10-27 06:46:00,66.0,61.7,30.05,NNE,25,0.0,1.0,86,0.00,,,0.00,Wunderground v.1.15,2013-10-27 10:46:00,
2013-10-27 06:51:00,66.1,61.8,30.05,NNE,25,0.0,0.0,86,0.00,,,0.00,Wunderground v.1.15,2013-10-27 10:51:00,
2013-10-27 06:56:00,66.2,61.9,30.06,North,11,0.0,0.0,86,0.00,,,0.00,Wunderground v.1.15,2013-10-27 10:56:00,
2013-10-27 07:01:00,66.2,61.9,30.06,NNE,18,0.0,0.0,86,0.00,,,0.00,Wunderground v.1.15,2013-10-27 11:01:00,
2013-10-27 07:06:00,66.2,61.9,30.06,NNE,19,0.0,0.0,86,0.00,,,0.00,Wunderground v.1.15,2013-10-27 11:06:00,
2013-10-27 07:11:00,66.3,62.0,30.06,NNE,18,0.0,0.0,86,0.00,,,0.00,Wunderground v.1.15,2013-10-27 11:11:00,
2013-10-27 07:16:00,66.3,62.0,30.06,NNE,18,0.0,0.0,86,0.00,,,0.00,Wunderground v.1.15,2013-10-27 11:16:00,
2013-10-27 07:21:00,66.3,62.0,30.06,NNE,19,0.0,0.0,86,0.00,,,0.00,Wunderground v.1.15,2013-10-27 11:21:00,
2013-10-27 07:26:00,66.2,61.9,30.06,NNE,18,0.0,0.0,86,0.00,,,0.00,Wunderground v.1.15,2013-10-27 11:26:00,
2013-10-27 07:31:00,66.2,61.9,30.06,NNE,25,0.0,0.0,86,0.00,,,0.00,Wunderground v.1.15,2013-10-27 11:31:00,
2013-10-27 07:36:00,66.3,62.0,30.06,NNE,25,0.0,0.0,86,0.00,,,0.00,Wunderground v.1.15,2013-10-27 11:36:00,
2013-10-27 07:41:00,66.3,62.0,30.07,NNE,25,0.0,0.0,86,0.00,,,0.00,Wunderground v.1.15,2013-10-27 11:41:00,
2013-10-27 07:46:00,66.3,62.0,30.07,NNE,27,0.0,0.0,86,0.00,,,0.00,Wunderground v.1.15,2013-10-27 11:46:00,
2013-10-27 07:51:00,66.4,62.1,30.07,East,89,0.0,0.0,86,0.00,,,0.00,Wunderground v.1.15,2013-10-27 11:51:00,
2013-10-27 07:56:00,66.4,62.1,30.07,East,89,0.0,0.0,86,0.00,,,0.00,Wunderground v.1.15,2013-10-27 11:56:00,
2013-10-27 08:00:00,66.5,62.2,30.07,East,89,0.0,1.0,86,0.00,,,0.00,Wunderground v.1.15,2013-10-27 12:00:00,
2013-10-27 08:05:00,66.8,62.5,30.07,East,85,0.0,1.0,86,0.00,,,0.00,Wunderground v.1.15,2013-10-27 12:05:00,
2013-10-27 08:10:00,67.5,63.2,30.08,NE,34,0.0,0.0,86,0.00,,,0.00,Wunderground v.1.15,2013-10-27 12:10:00,
2013-10-27 08:15:00,68.7,64.0,30.08,NNE,22,0.0,0.0,85,0.00,,,0.00,Wunderground v.1.15,2013-10-27 12:15:00,
2013-10-27 08:20:00,69.6,64.2,30.08,NNE,27,0.0,1.0,83,0.00,,,0.00,Wunderground v.1.15,2013-10-27 12:20:00,
2013-10-27 08:25:00,69.9,63.8,30.08,NNE,30,0.0,1.0,81,0.00,,,0.00,Wunderground v.1.15,2013-10-27 12:25:00,
2013-10-27 08:30:00,69.9,63.8,30.08,ENE,77,0.0,0.0,81,0.00,,,0.00,Wunderground v.1.15,2013-10-27 12:30:00,
2013-10-27 08:31:00,69.9,63.8,30.08,ENE,77,0.0,0.0,81,0.00,,,0.00,Wunderground v.1.15,2013-10-27 12:31:00,
2013-10-27 08:36:00,70.3,64.2,30.09,ENE,61,0.0,1.0,81,0.00,,,0.00,Wunderground v.1.15,2013-10-27 12:36:00,
2013-10-27 08:41:00,70.6,64.1,30.09,NE,34,0.0,1.0,80,0.00,,,0.00,Wunderground v.1.15,2013-10-27 12:41:00,
2013-10-27 08:46:00,71.1,64.6,30.09,NE,35,0.0,1.0,80,0.00,,,0.00,Wunderground v.1.15,2013-10-27 12:46:00,
2013-10-27 08:51:00,72.0,64.8,30.08,NE,50,4.0,4.0,78,0.00,,,0.00,Wunderground v.1.15,2013-10-27 12:51:00,
2013-10-27 08:56:00,72.2,64.6,30.09,NE,41,0.0,4.0,77,0.00,,,0.00,Wunderground v.1.15,2013-10-27 12:56:00,
2013-10-27 09:01:00,72.4,64.8,30.09,ENE,60,0.0,0.0,77,0.00,,,0.00,Wunderground v.1.15,2013-10-27 13:01:00,
2013-10-27 09:06:00,72.7,64.7,30.09,ENE,58,0.0,1.0,76,0.00,,,0.00,Wunderground v.1.15,2013-10-27 13:06:00,
2013-10-27 09:11:00,73.1,64.7,30.09,East,79,0.0,0.0,75,0.00,,,0.00,Wunderground v.1.15,2013-10-27 13:11:00,
2013-10-27 09:16:00,73.4,65.0,30.10,NNE,30,0.0,1.0,75,0.00,,,0.00,Wunderground v.1.15,2013-10-27 13:16:00,
2013-10-27 09:21:00,73.9,65.1,30.09,NE,49,0.0,1.0,74,0.00,,,0.00,Wunderground v.1.15,2013-10-27 13:21:00,
2013-10-27 09:26:00,74.4,65.2,30.09,NE,43,0.0,3.0,73,0.00,,,0.00,Wunderground v.1.15,2013-10-27 13:26:00,
2013-10-27 09:31:00,74.9,65.3,30.09,East,82,0.0,1.0,72,0.00,,,0.00,Wunderground v.1.15,2013-10-27 13:31:00,
2013-10-27 09:36:00,75.7,66.0,30.10,ENE,63,0.0,1.0,72,0.00,,,0.00,Wunderground v.1.15,2013-10-27 13:36:00,
2013-10-27 09:41:00,76.5,65.6,30.09,NE,44,0.0,1.0,69,0.00,,,0.00,Wunderground v.1.15,2013-10-27 13:41:00,
2013-10-27 09:46:00,76.6,65.2,30.10,NE,39,0.0,3.0,68,0.00,,,0.00,Wunderground v.1.15,2013-10-27 13:46:00,
2013-10-27 09:51:00,77.0,65.6,30.10,NE,37,0.0,1.0,68,0.00,,,0.00,Wunderground v.1.15,2013-10-27 13:51:00,
2013-10-27 09:56:00,77.2,65.8,30.10,NE,39,1.0,3.0,68,0.00,,,0.00,Wunderground v.1.15,2013-10-27 13:56:00,
2013-10-27 10:01:00,77.2,65.4,30.10,NE,46,0.0,1.0,67,0.00,,,0.00,Wunderground v.1.15,2013-10-27 14:01:00,
2013-10-27 10:06:00,77.3,65.9,30.10,NNE,25,0.0,1.0,68,0.00,,,0.00,Wunderground v.1.15,2013-10-27 14:06:00,
2013-10-27 10:11:00,77.9,66.5,30.11,ENE,57,0.0,0.0,68,0.00,,,0.00,Wunderground v.1.15,2013-10-27 14:11:00,
2013-10-27 10:16:00,78.5,66.2,30.10,North,6,2.0,4.0,66,0.00,,,0.00,Wunderground v.1.15,2013-10-27 14:16:00,
2013-10-27 10:21:00,78.5,66.2,30.10,North,8,0.0,2.0,66,0.00,,,0.00,Wunderground v.1.15,2013-10-27 14:21:00,
2013-10-27 10:26:00,78.8,66.5,30.10,North,359,0.0,4.0,66,0.00,,,0.00,Wunderground v.1.15,2013-10-27 14:26:00,
2013-10-27 10:31:00,79.3,66.5,30.10,East,79,0.0,1.0,65,0.00,,,0.00,Wunderground v.1.15,2013-10-27 14:31:00,
2013-10-27 10:36:00,79.7,66.9,30.11,ENE,66,1.0,3.0,65,0.00,,,0.00,Wunderground v.1.15,2013-10-27 14:36:00,
2013-10-27 10:41:00,79.9,67.1,30.11,NE,46,0.0,1.0,65,0.00,,,0.00,Wunderground v.1.15,2013-10-27 14:41:00,
2013-10-27 10:46:00,80.3,67.5,30.11,NE,51,0.0,5.0,65,0.00,,,0.00,Wunderground v.1.15,2013-10-27 14:46:00,
2013-10-27 10:51:00,80.6,66.8,30.11,ENE,60,0.0,3.0,63,0.00,,,0.00,Wunderground v.1.15,2013-10-27 14:51:00,
2013-10-27 10:56:00,80.7,66.5,30.11,East,98,2.0,7.0,62,0.00,,,0.00,Wunderground v.1.15,2013-10-27 14:56:00,
2013-10-27 11:01:00,80.4,66.6,30.11,NE,40,3.0,4.0,63,0.00,,,0.00,Wunderground v.1.15,2013-10-27 15:01:00,
2013-10-27 11:06:00,80.4,67.1,30.11,ENE,72,3.0,7.0,64,0.00,,,0.00,Wunderground v.1.15,2013-10-27 15:06:00,
2013-10-27 11:11:00,80.8,67.0,30.11,NE,56,1.0,4.0,63,0.00,,,0.00,Wunderground v.1.15,2013-10-27 15:11:00,
2013-10-27 11:16:00,80.9,67.1,30.10,ENE,75,2.0,6.0,63,0.00,,,0.00,Wunderground v.1.15,2013-10-27 15:16:00,
2013-10-27 11:21:00,81.4,67.1,30.10,NNE,30,3.0,3.0,62,0.00,,,0.00,Wunderground v.1.15,2013-10-27 15:21:00,
2013-10-27 11:26:00,81.6,66.4,30.11,East,98,5.0,8.0,60,0.00,,,0.00,Wunderground v.1.15,2013-10-27 15:26:00,
2013-10-27 11:31:00,81.8,66.6,30.11,East,101,1.0,5.0,60,0.00,,,0.00,Wunderground v.1.15,2013-10-27 15:31:00,
2013-10-27 11:36:00,81.5,66.3,30.10,ENE,68,2.0,9.0,60,0.00,,,0.00,Wunderground v.1.15,2013-10-27 15:36:00,
2013-10-27 11:41:00,81.1,66.8,30.10,NNE,29,2.0,6.0,62,0.00,,,0.00,Wunderground v.1.15,2013-10-27 15:41:00,
2013-10-27 11:46:00,81.4,66.2,30.10,ENE,72,7.0,8.0,60,0.00,,,0.00,Wunderground v.1.15,2013-10-27 15:46:00,
2013-10-27 11:50:00,81.0,66.3,30.10,ENE,63,0.0,3.0,61,0.00,,,0.00,Wunderground v.1.15,2013-10-27 15:50:00,
2013-10-27 11:55:00,81.1,66.8,30.10,ENE,68,3.0,8.0,62,0.00,,,0.00,Wunderground v.1.15,2013-10-27 15:55:00,
2013-10-27 12:00:00,81.5,66.3,30.10,East,91,2.0,3.0,60,0.00,,,0.00,Wunderground v.1.15,2013-10-27 16:00:00,
2013-10-27 12:05:00,82.1,66.4,30.10,East,79,2.0,9.0,59,0.00,,,0.00,Wunderground v.1.15,2013-10-27 16:05:00,
2013-10-27 12:10:00,82.0,66.3,30.10,East,83,3.0,4.0,59,0.00,,,0.00,Wunderground v.1.15,2013-10-27 16:10:00,
2013-10-27 12:15:00,81.5,65.8,30.10,East,84,2.0,7.0,59,0.00,,,0.00,Wunderground v.1.15,2013-10-27 16:15:00,
2013-10-27 12:20:00,81.4,66.2,30.10,ENE,74,0.0,3.0,60,0.00,,,0.00,Wunderground v.1.15,2013-10-27 16:20:00,
2013-10-27 12:25:00,82.2,66.9,30.10,ENE,76,3.0,6.0,60,0.00,,,0.00,Wunderground v.1.15,2013-10-27 16:25:00,
2013-10-27 12:30:00,82.0,66.3,30.09,East,86,5.0,5.0,59,0.00,,,0.00,Wunderground v.1.15,2013-10-27 16:30:00,
2013-10-27 12:35:00,81.8,66.6,30.09,NE,53,0.0,7.0,60,0.00,,,0.00,Wunderground v.1.15,2013-10-27 16:35:00,
2013-10-27 12:40:00,81.6,65.9,30.09,East,84,3.0,5.0,59,0.00,,,0.00,Wunderground v.1.15,2013-10-27 16:40:00,
2013-10-27 12:45:00,82.4,67.1,30.09,NNE,18,2.0,5.0,60,0.00,,,0.00,Wunderground v.1.15,2013-10-27 16:45:00,
2013-10-27 12:50:00,82.6,66.8,30.09,ESE,113,5.0,8.0,59,0.00,,,0.00,Wunderground v.1.15,2013-10-27 16:50:00,
2013-10-27 12:55:00,82.6,67.3,30.09,ESE,120,3.0,8.0,60,0.00,,,0.00,Wunderground v.1.15,2013-10-27 16:55:00,
2013-10-27 13:00:00,82.1,65.9,30.09,ENE,75,3.0,8.0,58,0.00,,,0.00,Wunderground v.1.15,2013-10-27 17:00:00,
2013-10-27 13:05:00,81.8,66.1,30.09,NE,37,4.0,8.0,59,0.00,,,0.00,Wunderground v.1.15,2013-10-27 17:05:00,
2013-10-27 13:10:00,81.9,66.6,30.09,NE,50,4.0,5.0,60,0.00,,,0.00,Wunderground v.1.15,2013-10-27 17:10:00,
2013-10-27 13:15:00,82.1,65.9,30.08,East,81,1.0,10.0,58,0.00,,,0.00,Wunderground v.1.15,2013-10-27 17:15:00,
2013-10-27 13:20:00,81.9,66.6,30.08,ENE,73,3.0,5.0,60,0.00,,,0.00,Wunderground v.1.15,2013-10-27 17:20:00,
2013-10-27 13:25:00,82.0,65.8,30.08,ENE,72,4.0,6.0,58,0.00,,,0.00,Wunderground v.1.15,2013-10-27 17:25:00,
2013-10-27 13:30:00,82.1,65.9,30.08,East,98,0.0,2.0,58,0.00,,,0.00,Wunderground v.1.15,2013-10-27 17:30:00,
2013-10-27 13:35:00,82.1,65.4,30.08,ENE,69,2.0,6.0,57,0.00,,,0.00,Wunderground v.1.15,2013-10-27 17:35:00,
2013-10-27 13:40:00,82.0,65.8,30.08,ENE,68,2.0,5.0,58,0.00,,,0.00,Wunderground v.1.15,2013-10-27 17:40:00,
2013-10-27 13:45:00,81.9,65.7,30.07,ENE,65,2.0,5.0,58,0.00,,,0.00,Wunderground v.1.15,2013-10-27 17:45:00,
2013-10-27 13:50:00,82.1,65.9,30.07,NE,35,3.0,4.0,58,0.00,,,0.00,Wunderground v.1.15,2013-10-27 17:50:00,
2013-10-27 13:55:00,81.9,64.7,30.07,NNE,23,2.0,7.0,56,0.00,,,0.00,Wunderground v.1.15,2013-10-27 17:55:00,
2013-10-27 14:00:00,81.5,64.3,30.07,NNE,23,2.0,6.0,56,0.00,,,0.00,Wunderground v.1.15,2013-10-27 18:00:00,
2013-10-27 14:05:00,81.5,65.8,30.06,ENE,65,8.0,11.0,59,0.00,,,0.00,Wunderground v.1.15,2013-10-27 18:05:00,
2013-10-27 14:10:00,81.4,64.7,30.06,ESE,105,2.0,7.0,57,0.00,,,0.00,Wunderground v.1.15,2013-10-27 18:10:00,
2013-10-27 14:15:00,82.0,65.3,30.06,ENE,60,2.0,9.0,57,0.00,,,0.00,Wunderground v.1.15,2013-10-27 18:15:00,
2013-10-27 14:20:00,82.6,64.8,30.05,ENE,72,3.0,8.0,55,0.00,,,0.00,Wunderground v.1.15,2013-10-27 18:20:00,
2013-10-27 14:25:00,82.6,65.8,30.05,East,82,4.0,12.0,57,0.00,,,0.00,Wunderground v.1.15,2013-10-27 18:25:00,
2013-10-27 14:30:00,82.6,65.3,30.05,NNE,15,2.0,3.0,56,0.00,,,0.00,Wunderground v.1.15,2013-10-27 18:30:00,
2013-10-27 14:35:00,83.3,65.4,30.05,NE,54,3.0,5.0,55,0.00,,,0.00,Wunderground v.1.15,2013-10-27 18:35:00,
2013-10-27 14:40:00,83.3,65.4,30.04,ENE,60,3.0,10.0,55,0.00,,,0.00,Wunderground v.1.15,2013-10-27 18:40:00,
2013-10-27 14:45:00,82.7,65.9,30.04,ESE,104,4.0,10.0,57,0.00,,,0.00,Wunderground v.1.15,2013-10-27 18:45:00,
2013-10-27 14:50:00,82.8,66.5,30.04,East,98,4.0,5.0,58,0.00,,,0.00,Wunderground v.1.15,2013-10-27 18:50:00,
2013-10-27 14:55:00,83.0,66.2,30.04,East,98,0.0,8.0,57,0.00,,,0.00,Wunderground v.1.15,2013-10-27 18:55:00,
2013-10-27 15:00:00,83.6,66.2,30.04,NE,53,2.0,5.0,56,0.00,,,0.00,Wunderground v.1.15,2013-10-27 19:00:00,
2013-10-27 15:05:00,83.6,65.2,30.04,NE,50,4.0,7.0,54,0.00,,,0.00,Wunderground v.1.15,2013-10-27 19:05:00,
2013-10-27 15:10:00,83.1,64.7,30.04,NE,45,4.0,4.0,54,0.00,,,0.00,Wunderground v.1.15,2013-10-27 19:10:00,
2013-10-27 15:15:00,83.1,65.3,30.04,NNE,30,0.0,8.0,55,0.00,,,0.00,Wunderground v.1.15,2013-10-27 19:15:00,
2013-10-27 15:20:00,83.0,65.7,30.04,NNE,16,0.0,6.0,56,0.00,,,0.00,Wunderground v.1.15,2013-10-27 19:20:00,
2013-10-27 15:25:00,83.4,65.5,30.04,NE,40,3.0,8.0,55,0.00,,,0.00,Wunderground v.1.15,2013-10-27 19:25:00,
2013-10-27 15:30:00,83.2,63.7,30.04,NE,37,4.0,8.0,52,0.00,,,0.00,Wunderground v.1.15,2013-10-27 19:30:00,
2013-10-27 15:35:00,82.9,65.1,30.04,NNE,26,3.0,8.0,55,0.00,,,0.00,Wunderground v.1.15,2013-10-27 19:35:00,
2013-10-27 15:40:00,82.9,65.1,30.04,NE,55,5.0,7.0,55,0.00,,,0.00,Wunderground v.1.15,2013-10-27 19:40:00,
2013-10-27 15:45:00,83.2,65.9,30.04,NE,53,1.0,8.0,56,0.00,,,0.00,Wunderground v.1.15,2013-10-27 19:45:00,
2013-10-27 15:50:00,83.3,66.0,30.04,North,11,0.0,5.0,56,0.00,,,0.00,Wunderground v.1.15,2013-10-27 19:50:00,
2013-10-27 15:55:00,83.4,66.6,30.04,East,91,0.0,5.0,57,0.00,,,0.00,Wunderground v.1.15,2013-10-27 19:55:00,
2013-10-27 16:00:00,83.5,67.7,30.04,NE,46,1.0,9.0,59,0.00,,,0.00,Wunderground v.1.15,2013-10-27 20:00:00,
2013-10-27 16:05:00,83.2,67.9,30.04,East,89,0.0,9.0,60,0.00,,,0.00,Wunderground v.1.15,2013-10-27 20:05:00,
2013-10-27 16:10:00,83.3,68.0,30.05,ENE,74,8.0,8.0,60,0.00,,,0.00,Wunderground v.1.15,2013-10-27 20:10:00,
2013-10-27 16:15:00,82.6,67.3,30.04,East,86,0.0,10.0,60,0.00,,,0.00,Wunderground v.1.15,2013-10-27 20:15:00,
2013-10-27 16:20:00,82.1,67.3,30.05,East,93,0.0,2.0,61,0.00,,,0.00,Wunderground v.1.15,2013-10-27 20:20:00,
2013-10-27 16:25:00,82.2,67.4,30.04,East,82,0.0,9.0,61,0.00,,,0.00,Wunderground v.1.15,2013-10-27 20:25:00,
2013-10-27 16:30:00,82.4,67.6,30.04,East,84,2.0,7.0,61,0.00,,,0.00,Wunderground v.1.15,2013-10-27 20:30:00,
2013-10-27 16:35:00,82.4,67.1,30.04,ENE,63,8.0,8.0,60,0.00,,,0.00,Wunderground v.1.15,2013-10-27 20:35:00,
2013-10-27 16:40:00,82.4,66.6,30.04,ESE,119,0.0,3.0,59,0.00,,,0.00,Wunderground v.1.15,2013-10-27 20:40:00,
2013-10-27 16:45:00,82.8,67.5,30.04,East,86,1.0,5.0,60,0.00,,,0.00,Wunderground v.1.15,2013-10-27 20:45:00,
2013-10-27 16:50:00,82.6,67.8,30.04,East,97,0.0,5.0,61,0.00,,,0.00,Wunderground v.1.15,2013-10-27 20:50:00,
2013-10-27 16:55:00,82.4,67.6,30.05,NNE,30,2.0,8.0,61,0.00,,,0.00,Wunderground v.1.15,2013-10-27 20:55:00,
2013-10-27 17:00:00,82.1,66.8,30.05,NE,37,0.0,4.0,60,0.00,,,0.00,Wunderground v.1.15,2013-10-27 21:00:00,
2013-10-27 17:05:00,81.6,66.8,30.05,NE,37,2.0,9.0,61,0.00,,,0.00,Wunderground v.1.15,2013-10-27 21:05:00,
2013-10-27 17:10:00,81.7,66.9,30.04,NE,55,1.0,4.0,61,0.00,,,0.00,Wunderground v.1.15,2013-10-27 21:10:00,
2013-10-27 17:15:00,82.0,68.2,30.04,East,79,3.0,8.0,63,0.00,,,0.00,Wunderground v.1.15,2013-10-27 21:15:00,
2013-10-27 17:20:00,81.9,67.1,30.04,ENE,58,1.0,4.0,61,0.00,,,0.00,Wunderground v.1.15,2013-10-27 21:20:00,
2013-10-27 17:25:00,81.9,67.1,30.05,NNE,30,3.0,9.0,61,0.00,,,0.00,Wunderground v.1.15,2013-10-27 21:25:00,
2013-10-27 17:30:00,81.7,66.9,30.04,East,101,0.0,7.0,61,0.00,,,0.00,Wunderground v.1.15,2013-10-27 21:30:00,
2013-10-27 17:35:00,81.6,67.3,30.05,NE,39,1.0,7.0,62,0.00,,,0.00,Wunderground v.1.15,2013-10-27 21:35:00,
2013-10-27 17:40:00,81.5,66.8,30.04,NNE,22,2.0,4.0,61,0.00,,,0.00,Wunderground v.1.15,2013-10-27 21:40:00,
2013-10-27 17:45:00,81.7,66.0,30.04,East,96,1.0,4.0,59,0.00,,,0.00,Wunderground v.1.15,2013-10-27 21:45:00,
2013-10-27 17:50:00,81.6,66.8,30.05,East,94,3.0,3.0,61,0.00,,,0.00,Wunderground v.1.15,2013-10-27 21:50:00,
2013-10-27 17:55:00,81.4,66.7,30.05,ESE,113,1.0,7.0,61,0.00,,,0.00,Wunderground v.1.15,2013-10-27 21:55:00,
2013-10-27 18:00:00,81.3,66.6,30.05,East,89,3.0,3.0,61,0.00,,,0.00,Wunderground v.1.15,2013-10-27 22:00:00,
2013-10-27 18:05:00,81.1,66.4,30.05,NE,53,4.0,5.0,61,0.00,,,0.00,Wunderground v.1.15,2013-10-27 22:05:00,
2013-10-27 18:10:00,80.9,66.2,30.05,NNE,29,3.0,4.0,61,0.00,,,0.00,Wunderground v.1.15,2013-10-27 22:10:00,
2013-10-27 18:15:00,80.6,66.4,30.05,North,1,1.0,5.0,62,0.00,,,0.00,Wunderground v.1.15,2013-10-27 22:15:00,
2013-10-27 18:20:00,80.5,66.3,30.05,ENE,57,2.0,3.0,62,0.00,,,0.00,Wunderground v.1.15,2013-10-27 22:20:00,
2013-10-27 18:25:00,79.9,66.2,30.05,ENE,73,1.0,6.0,63,0.00,,,0.00,Wunderground v.1.15,2013-10-27 22:25:00,
2013-10-27 18:30:00,79.3,66.1,30.05,NE,37,2.0,4.0,64,0.00,,,0.00,Wunderground v.1.15,2013-10-27 22:30:00,
2013-10-27 18:35:00,78.7,65.9,30.05,ENE,69,2.0,5.0,65,0.00,,,0.00,Wunderground v.1.15,2013-10-27 22:35:00,
2013-10-27 18:40:00,78.3,66.0,30.05,East,89,1.0,2.0,66,0.00,,,0.00,Wunderground v.1.15,2013-10-27 22:40:00,
2013-10-27 18:45:00,77.8,65.5,30.05,ENE,75,2.0,6.0,66,0.00,,,0.00,Wunderground v.1.15,2013-10-27 22:45:00,
2013-10-27 18:50:00,77.5,65.7,30.05,ENE,75,0.0,1.0,67,0.00,,,0.00,Wunderground v.1.15,2013-10-27 22:50:00,
2013-10-27 18:55:00,77.2,65.4,30.06,NNE,27,0.0,6.0,67,0.00,,,0.00,Wunderground v.1.15,2013-10-27 22:55:00,
2013-10-27 19:00:00,76.9,65.5,30.06,ENE,67,0.0,1.0,68,0.00,,,0.00,Wunderground v.1.15,2013-10-27 23:00:00,
2013-10-27 19:05:00,76.8,65.4,30.06,East,83,1.0,4.0,68,0.00,,,0.00,Wunderground v.1.15,2013-10-27 23:05:00,
2013-10-27 19:10:00,76.7,65.3,30.06,East,79,0.0,0.0,68,0.00,,,0.00,Wunderground v.1.15,2013-10-27 23:10:00,
2013-10-27 19:15:00,76.4,65.5,30.06,ESE,111,0.0,1.0,69,0.00,,,0.00,Wunderground v.1.15,2013-10-27 23:15:00,
2013-10-27 19:20:00,76.2,65.3,30.06,NNW,330,1.0,1.0,69,0.00,,,0.00,Wunderground v.1.15,2013-10-27 23:20:00,
2013-10-27 19:25:00,76.1,65.6,30.06,NNE,19,0.0,1.0,70,0.00,,,0.00,Wunderground v.1.15,2013-10-27 23:25:00,
2013-10-27 19:30:00,75.9,65.4,30.06,ENE,63,0.0,0.0,70,0.00,,,0.00,Wunderground v.1.15,2013-10-27 23:30:00,
2013-10-27 19:35:00,75.8,65.7,30.06,NNE,20,0.0,2.0,71,0.00,,,0.00,Wunderground v.1.15,2013-10-27 23:35:00,
2013-10-27 19:40:00,75.5,65.4,30.06,NE,35,0.0,0.0,71,0.00,,,0.00,Wunderground v.1.15,2013-10-27 23:40:00,
2013-10-27 19:45:00,75.4,65.7,30.07,NE,35,0.0,1.0,72,0.00,,,0.00,Wunderground v.1.15,2013-10-27 23:45:00,
2013-10-27 19:50:00,75.2,65.6,30.07,NE,56,0.0,0.0,72,0.00,,,0.00,Wunderground v.1.15,2013-10-27 23:50:00,
2013-10-27 19:55:00,75.0,65.4,30.07,ENE,63,0.0,0.0,72,0.00,,,0.00,Wunderground v.1.15,2013-10-27 23:55:00,
2013-10-27 20:00:00,74.8,65.6,30.07,ENE,58,0.0,0.0,73,0.00,,,0.00,Wunderground v.1.15,2013-10-28 00:00:00,
2013-10-27 20:05:00,74.7,65.5,30.07,ENE,70,0.0,1.0,73,0.00,,,0.00,Wunderground v.1.15,2013-10-28 00:05:00,
2013-10-27 20:10:00,74.5,65.3,30.08,ENE,72,0.0,0.0,73,0.00,,,0.00,Wunderground v.1.15,2013-10-28 00:10:00,
2013-10-27 20:15:00,74.4,65.6,30.08,ENE,72,0.0,0.0,74,0.00,,,0.00,Wunderground v.1.15,2013-10-28 00:15:00,
2013-10-27 20:20:00,74.2,65.4,30.08,ENE,72,0.0,0.0,74,0.00,,,0.00,Wunderground v.1.15,2013-10-28 00:20:00,
2013-10-27 20:25:00,74.0,65.2,30.08,ENE,72,0.0,1.0,74,0.00,,,0.00,Wunderground v.1.15,2013-10-28 00:25:00,
2013-10-27 20:30:00,73.9,65.5,30.08,ENE,65,0.0,0.0,75,0.00,,,0.00,Wunderground v.1.15,2013-10-28 00:30:00,
2013-10-27 20:35:00,73.8,65.4,30.08,ENE,65,0.0,0.0,75,0.00,,,0.00,Wunderground v.1.15,2013-10-28 00:35:00,
2013-10-27 20:40:00,73.6,65.2,30.08,ENE,65,0.0,0.0,75,0.00,,,0.00,Wunderground v.1.15,2013-10-28 00:40:00,
2013-10-27 20:45:00,73.3,64.9,30.09,ENE,65,0.0,0.0,75,0.00,,,0.00,Wunderground v.1.15,2013-10-28 00:45:00,
2013-10-27 20:50:00,73.1,65.1,30.09,East,82,0.0,0.0,76,0.00,,,0.00,Wunderground v.1.15,2013-10-28 00:50:00,
2013-10-27 20:55:00,72.9,64.9,30.09,East,82,0.0,0.0,76,0.00,,,0.00,Wunderground v.1.15,2013-10-28 00:55:00,
2013-10-27 21:00:00,72.8,65.2,30.08,East,82,0.0,0.0,77,0.00,,,0.00,Wunderground v.1.15,2013-10-28 01:00:00,
2013-10-27 21:05:00,72.7,65.1,30.08,East,82,0.0,0.0,77,0.00,,,0.00,Wunderground v.1.15,2013-10-28 01:05:00,
2013-10-27 21:10:00,72.7,65.1,30.09,East,86,0.0,0.0,77,0.00,,,0.00,Wunderground v.1.15,2013-10-28 01:10:00,
2013-10-27 21:15:00,72.7,65.1,30.09,East,86,0.0,0.0,77,0.00,,,0.00,Wunderground v.1.15,2013-10-28 01:15:00,
2013-10-27 21:20:00,72.6,65.0,30.09,East,86,0.0,0.0,77,0.00,,,0.00,Wunderground v.1.15,2013-10-28 01:20:00,
2013-10-27 21:25:00,72.6,65.0,30.09,East,86,0.0,0.0,77,0.00,,,0.00,Wunderground v.1.15,2013-10-28 01:25:00,
2013-10-27 21:30:00,72.6,65.0,30.09,East,86,0.0,0.0,77,0.00,,,0.00,Wunderground v.1.15,2013-10-28 01:30:00,
2013-10-27 21:35:00,72.6,65.0,30.09,East,83,0.0,0.0,77,0.00,,,0.00,Wunderground v.1.15,2013-10-28 01:35:00,
2013-10-27 21:40:00,72.6,65.3,30.09,East,84,0.0,0.0,78,0.00,,,0.00,Wunderground v.1.15,2013-10-28 01:40:00,
2013-10-27 21:45:00,72.5,64.9,30.09,East,83,0.0,0.0,77,0.00,,,0.00,Wunderground v.1.15,2013-10-28 01:45:00,
2013-10-27 21:50:00,72.5,65.2,30.09,East,85,0.0,0.0,78,0.00,,,0.00,Wunderground v.1.15,2013-10-28 01:50:00,
2013-10-27 21:55:00,72.6,65.3,30.09,East,85,0.0,0.0,78,0.00,,,0.00,Wunderground v.1.15,2013-10-28 01:55:00,
2013-10-27 22:00:00,72.6,65.3,30.09,East,84,0.0,0.0,78,0.00,,,0.00,Wunderground v.1.15,2013-10-28 02:00:00,
2013-10-27 22:05:00,72.5,65.2,30.09,East,84,0.0,0.0,78,0.00,,,0.00,Wunderground v.1.15,2013-10-28 02:05:00,
2013-10-27 22:10:00,72.4,65.2,30.10,East,84,0.0,0.0,78,0.00,,,0.00,Wunderground v.1.15,2013-10-28 02:10:00,
2013-10-27 22:15:00,72.4,65.2,30.10,East,85,0.0,0.0,78,0.00,,,0.00,Wunderground v.1.15,2013-10-28 02:15:00,
2013-10-27 22:20:00,72.3,65.1,30.10,East,85,0.0,0.0,78,0.00,,,0.00,Wunderground v.1.15,2013-10-28 02:20:00,
2013-10-27 22:25:00,72.4,65.2,30.10,NE,35,1.0,1.0,78,0.00,,,0.00,Wunderground v.1.15,2013-10-28 02:25:00,
2013-10-27 22:30:00,72.5,65.2,30.10,NNE,33,0.0,0.0,78,0.00,,,0.00,Wunderground v.1.15,2013-10-28 02:30:00,
2013-10-27 22:35:00,72.5,65.2,30.10,NNE,32,0.0,0.0,78,0.00,,,0.00,Wunderground v.1.15,2013-10-28 02:35:00,
2013-10-27 22:40:00,72.4,65.2,30.10,NNE,33,0.0,0.0,78,0.00,,,0.00,Wunderground v.1.15,2013-10-28 02:40:00,
2013-10-27 22:45:00,72.3,65.4,30.10,NNE,32,0.0,0.0,79,0.00,,,0.00,Wunderground v.1.15,2013-10-28 02:45:00,
2013-10-27 22:50:00,72.2,65.3,30.10,NNE,32,0.0,1.0,79,0.00,,,0.00,Wunderground v.1.15,2013-10-28 02:50:00,
2013-10-27 22:55:00,72.3,65.4,30.10,NNE,32,1.0,1.0,79,0.00,,,0.00,Wunderground v.1.15,2013-10-28 02:55:00,
2013-10-27 23:00:00,72.3,65.4,30.10,NNE,32,0.0,0.0,79,0.00,,,0.00,Wunderground v.1.15,2013-10-28 03:00:00,
2013-10-27 23:05:00,72.3,65.4,30.10,NNE,32,0.0,0.0,79,0.00,,,0.00,Wunderground v.1.15,2013-10-28 03:05:00,
2013-10-27 23:10:00,72.2,65.3,30.10,East,93,0.0,0.0,79,0.00,,,0.00,Wunderground v.1.15,2013-10-28 03:10:00,
2013-10-27 23:15:00,72.2,65.3,30.10,East,93,0.0,0.0,79,0.00,,,0.00,Wunderground v.1.15,2013-10-28 03:15:00,
2013-10-27 23:20:00,72.1,65.2,30.10,East,93,0.0,0.0,79,0.00,,,0.00,Wunderground v.1.15,2013-10-28 03:20:00,
2013-10-27 23:25:00,72.0,65.1,30.10,East,93,0.0,0.0,79,0.00,,,0.00,Wunderground v.1.15,2013-10-28 03:25:00,
2013-10-27 23:30:00,71.8,65.3,30.10,East,93,0.0,0.0,80,0.00,,,0.00,Wunderground v.1.15,2013-10-28 03:30:00,
2013-10-27 23:35:00,71.8,65.3,30.10,East,93,0.0,0.0,80,0.00,,,0.00,Wunderground v.1.15,2013-10-28 03:35:00,
2013-10-27 23:40:00,71.6,65.1,30.10,East,93,0.0,0.0,80,0.00,,,0.00,Wunderground v.1.15,2013-10-28 03:40:00,
2013-10-27 23:45:00,71.4,64.9,30.10,East,93,0.0,0.0,80,0.00,,,0.00,Wunderground v.1.15,2013-10-28 03:45:00,
2013-10-27 23:50:00,71.2,64.7,30.10,East,94,0.0,0.0,80,0.00,,,0.00,Wunderground v.1.15,2013-10-28 03:50:00,
2013-10-27 23:55:00,71.0,64.5,30.10,East,93,0.0,0.0,80,0.00,,,0.00,Wunderground v.1.15,2013-10-28 03:55:00,